| time (UTC) | temp F | wind direction | speed knots | gust knots | rain 1hr in | rain 24hr in | rain mn in | humidity % | barometer mb |
| 20260831050147 | 83 | 68 | 4.3 | 6.1 | 0.00 | 0.00 | 0.00 | 85 | 1015.2 |
| 20260831045646 | 83 | 152 | 2.6 | 7.0 | 0.00 | 0.00 | 0.26 | 85 | 1015.2 |
| 20260831045146 | 83 | 57 | 6.1 | 7.0 | 0.00 | 0.00 | 0.26 | 85 | 1015.2 |
| 20260831044646 | 83 | 88 | 4.3 | 7.0 | 0.00 | 0.00 | 0.26 | 85 | 1015.2 |
| 20260831044147 | 83 | 84 | 2.6 | 8.7 | 0.00 | 0.00 | 0.26 | 85 | 1015.6 |
| 20260831043646 | 83 | 99 | 3.5 | 6.1 | 0.00 | 0.00 | 0.26 | 84 | 1015.2 |
| 20260831043146 | 83 | 79 | 2.6 | 7.8 | 0.00 | 0.00 | 0.26 | 84 | 1015.6 |
| 20260831042647 | 83 | 62 | 4.3 | 6.1 | 0.00 | 0.00 | 0.26 | 84 | 1015.6 |
| 20260831042146 | 83 | 82 | 1.7 | 5.2 | 0.00 | 0.00 | 0.26 | 84 | 1015.9 |
| 20260831041647 | 83 | 84 | 5.2 | 7.0 | 0.00 | 0.00 | 0.26 | 83 | 1015.6 |
| 20260831041147 | 83 | 84 | 1.7 | 3.5 | 0.00 | 0.00 | 0.26 | 83 | 1015.6 |
| 20260831040647 | 83 | 50 | 1.7 | 7.8 | 0.00 | 0.00 | 0.26 | 83 | 1015.6 |
| 20260831040154 | 83 | 50 | 7.0 | 8.7 | 0.00 | 0.00 | 0.26 | 83 | 1015.6 |
| 20260831035646 | 83 | 81 | 3.5 | 4.3 | 0.00 | 0.00 | 0.26 | 82 | 1015.6 |
| 20260831035147 | 83 | 39 | 2.6 | 4.3 | 0.00 | 0.00 | 0.26 | 82 | 1015.6 |
| 20260831034647 | 83 | 107 | 1.7 | 4.3 | 0.00 | 0.00 | 0.26 | 82 | 1015.6 |
| 20260831034147 | 83 | 80 | 4.3 | 5.2 | 0.00 | 0.00 | 0.26 | 82 | 1015.9 |
| 20260831033647 | 83 | 79 | 1.7 | 2.6 | 0.00 | 0.00 | 0.26 | 82 | 1015.6 |
| 20260831033147 | 84 | 50 | 3.5 | 8.7 | 0.00 | 0.00 | 0.26 | 81 | 1015.9 |
| 20260831032646 | 84 | 96 | 5.2 | 6.1 | 0.00 | 0.00 | 0.26 | 81 | 1015.9 |
| 20260831032147 | 84 | 222 | 0.9 | 3.5 | 0.00 | 0.00 | 0.26 | 81 | 1015.9 |
| 20260831031648 | 84 | 85 | 2.6 | 6.1 | 0.00 | 0.00 | 0.26 | 81 | 1015.9 |
| 20260831030711 | 84 | 63 | 2.6 | 7.8 | 0.00 | 0.00 | 0.26 | 81 | 1015.2 |
| 20260831030146 | 84 | 68 | 3.5 | 6.1 | 0.00 | 0.00 | 0.26 | 81 | 1015.6 |
| 20260831025646 | 83 | 69 | 3.5 | 6.1 | 0.00 | 0.00 | 0.26 | 81 | 1015.6 |
| 20260831025147 | 84 | 57 | 1.7 | 4.3 | 0.00 | 0.00 | 0.26 | 81 | 1015.6 |
| 20260831024646 | 84 | 71 | 5.2 | 7.8 | 0.00 | 0.00 | 0.26 | 80 | 1015.2 |
| 20260831024148 | 84 | 108 | 4.3 | 5.2 | 0.00 | 0.00 | 0.26 | 80 | 1015.6 |
| 20260831023646 | 84 | 72 | 1.7 | 3.5 | 0.00 | 0.00 | 0.26 | 80 | 1015.6 |
| 20260831023147 | 84 | 61 | 1.7 | 4.3 | 0.00 | 0.00 | 0.26 | 79 | 1015.6 |
| 20260831022646 | 84 | 77 | 1.7 | 6.1 | 0.00 | 0.00 | 0.26 | 79 | 1015.2 |
| 20260831022148 | 84 | 82 | 4.3 | 7.8 | 0.00 | 0.00 | 0.26 | 78 | 1015.2 |
| 20260831021647 | 84 | 62 | 6.1 | 8.7 | 0.00 | 0.00 | 0.26 | 78 | 1015.2 |
| 20260831021146 | 84 | 84 | 6.1 | 11.3 | 0.00 | 0.00 | 0.26 | 77 | 1015.2 |
| 20260831020646 | 84 | 64 | 7.8 | 7.8 | 0.00 | 0.00 | 0.26 | 79 | 1015.2 |
| 20260831020147 | 84 | 86 | 6.1 | 7.0 | 0.00 | 0.00 | 0.26 | 80 | 1015.2 |
| 20260831015647 | 84 | 38 | 7.8 | 11.3 | 0.00 | 0.00 | 0.26 | 80 | 1014.9 |
| 20260831015148 | 84 | 60 | 4.3 | 5.2 | 0.00 | 0.00 | 0.26 | 79 | 1014.9 |
| 20260831014647 | 84 | 68 | 2.6 | 6.1 | 0.00 | 0.00 | 0.26 | 79 | 1014.9 |
| 20260831014147 | 84 | 96 | 6.1 | 7.8 | 0.00 | 0.00 | 0.26 | 78 | 1014.9 |
| 20260831013647 | 84 | 53 | 5.2 | 7.8 | 0.00 | 0.00 | 0.26 | 78 | 1014.9 |
| 20260831013146 | 84 | 71 | 5.2 | 11.3 | 0.00 | 0.00 | 0.26 | 78 | 1014.6 |
| 20260831012647 | 84 | 94 | 4.3 | 9.6 | 0.00 | 0.00 | 0.26 | 78 | 1014.6 |
| 20260831012146 | 84 | 69 | 5.2 | 7.8 | 0.00 | 0.00 | 0.26 | 77 | 1014.6 |
| 20260831011648 | 84 | 51 | 4.3 | 9.6 | 0.00 | 0.00 | 0.26 | 78 | 1014.6 |
| 20260831011146 | 85 | 67 | 4.3 | 9.6 | 0.00 | 0.00 | 0.26 | 77 | 1014.6 |
| 20260831010647 | 84 | 79 | 7.0 | 8.7 | 0.00 | 0.00 | 0.26 | 77 | 1014.6 |
| 20260831010147 | 85 | 68 | 7.0 | 8.7 | 0.00 | 0.00 | 0.26 | 76 | 1014.2 |
| 20260831005646 | 85 | 80 | 2.6 | 6.1 | 0.00 | 0.00 | 0.26 | 76 | 1014.2 |
| 20260831005149 | 85 | 70 | 7.0 | 8.7 | 0.00 | 0.00 | 0.26 | 76 | 1014.2 |
| 20260831004646 | 85 | 68 | 4.3 | 9.6 | 0.00 | 0.00 | 0.26 | 75 | 1014.2 |
| 20260831004146 | 85 | 34 | 2.6 | 6.1 | 0.00 | 0.00 | 0.26 | 75 | 1014.2 |
| 20260831003646 | 85 | 62 | 5.2 | 7.8 | 0.00 | 0.00 | 0.26 | 75 | 1014.2 |
| 20260831003146 | 85 | 58 | 5.2 | 6.1 | 0.00 | 0.00 | 0.26 | 76 | 1014.2 |
| 20260831002647 | 85 | 72 | 1.7 | 7.0 | 0.00 | 0.00 | 0.26 | 76 | 1014.2 |
| 20260831002146 | 85 | 73 | 3.5 | 9.6 | 0.00 | 0.00 | 0.26 | 76 | 1014.2 |
| 20260831001647 | 85 | 91 | 2.6 | 9.6 | 0.00 | 0.00 | 0.26 | 76 | 1014.2 |
| 20260831001146 | 85 | 60 | 6.1 | 9.6 | 0.00 | 0.00 | 0.26 | 75 | 1014.2 |
| 20260831000646 | 86 | 65 | 7.8 | 13.0 | 0.00 | 0.00 | 0.26 | 74 | 1014.2 |
| 20260831000146 | 86 | 63 | 8.7 | 12.2 | 0.00 | 0.00 | 0.26 | 72 | 1014.2 |
| 20260830235646 | 86 | 51 | 7.0 | 11.3 | 0.00 | 0.00 | 0.26 | 72 | 1014.2 |
| 20260830235146 | 86 | 49 | 7.0 | 12.2 | 0.00 | 0.00 | 0.26 | 73 | 1014.2 |
| 20260830234647 | 86 | 32 | 4.3 | 9.6 | 0.00 | 0.00 | 0.26 | 74 | 1014.2 |
| 20260830234147 | 86 | 57 | 7.8 | 11.3 | 0.00 | 0.00 | 0.26 | 74 | 1014.2 |
| 20260830233646 | 86 | 67 | 8.7 | 9.6 | 0.00 | 0.00 | 0.26 | 74 | 1014.2 |
| 20260830233148 | 87 | 73 | 4.3 | 8.7 | 0.00 | 0.00 | 0.26 | 74 | 1014.2 |
| 20260830232647 | 87 | 38 | 6.1 | 9.6 | 0.00 | 0.00 | 0.26 | 74 | 1014.2 |
| 20260830232146 | 87 | 45 | 5.2 | 8.7 | 0.00 | 0.00 | 0.26 | 73 | 1014.2 |
| 20260830231646 | 87 | 40 | 3.5 | 9.6 | 0.00 | 0.00 | 0.26 | 74 | 1014.2 |
| 20260830231146 | 87 | 47 | 1.7 | 7.8 | 0.00 | 0.00 | 0.26 | 73 | 1014.2 |
| 20260830230646 | 87 | 62 | 7.0 | 9.6 | 0.00 | 0.00 | 0.26 | 73 | 1014.2 |
| 20260830230146 | 87 | 69 | 9.6 | 13.0 | 0.00 | 0.00 | 0.26 | 73 | 1014.2 |
| 20260830225645 | 87 | 62 | 3.5 | 11.3 | 0.00 | 0.00 | 0.26 | 73 | 1014.2 |
| 20260830225146 | 87 | 22 | 1.7 | 5.2 | 0.00 | 0.00 | 0.26 | 73 | 1014.2 |
| 20260830224646 | 87 | 50 | 2.6 | 9.6 | 0.00 | 0.00 | 0.26 | 73 | 1014.2 |
| 20260830224146 | 87 | 82 | 5.2 | 7.0 | 0.00 | 0.00 | 0.26 | 73 | 1014.2 |
| 20260830223646 | 87 | 68 | 9.6 | 10.4 | 0.00 | 0.00 | 0.26 | 72 | 1014.2 |
| 20260830223146 | 87 | 40 | 4.3 | 8.7 | 0.00 | 0.00 | 0.26 | 71 | 1014.2 |
| 20260830222646 | 87 | 73 | 5.2 | 11.3 | 0.00 | 0.00 | 0.26 | 71 | 1014.2 |
| 20260830222146 | 87 | 66 | 7.8 | 8.7 | 0.00 | 0.00 | 0.26 | 70 | 1014.2 |
| 20260830221646 | 87 | 65 | 2.6 | 9.6 | 0.00 | 0.00 | 0.26 | 69 | 1014.6 |
| 20260830221147 | 87 | 50 | 7.0 | 9.6 | 0.00 | 0.00 | 0.26 | 69 | 1014.2 |
| 20260830220646 | 87 | 51 | 7.0 | 8.7 | 0.00 | 0.00 | 0.26 | 69 | 1014.6 |
| 20260830220146 | 87 | 88 | 6.1 | 10.4 | 0.00 | 0.00 | 0.26 | 69 | 1014.6 |
| 20260830215645 | 87 | 84 | 7.0 | 7.8 | 0.00 | 0.00 | 0.26 | 70 | 1014.6 |
| 20260830215146 | 87 | 69 | 7.0 | 11.3 | 0.00 | 0.00 | 0.26 | 69 | 1014.6 |
| 20260830214647 | 87 | 65 | 5.2 | 9.6 | 0.00 | 0.00 | 0.26 | 69 | 1014.2 |
| 20260830214147 | 87 | 53 | 5.2 | 11.3 | 0.00 | 0.00 | 0.26 | 68 | 1014.6 |
| 20260830213646 | 87 | 64 | 7.8 | 9.6 | 0.00 | 0.00 | 0.26 | 68 | 1014.6 |
| 20260830213148 | 88 | 59 | 9.6 | 9.6 | 0.00 | 0.00 | 0.26 | 66 | 1014.6 |
| 20260830212646 | 88 | 74 | 6.1 | 9.6 | 0.00 | 0.00 | 0.26 | 67 | 1014.6 |
| 20260830212147 | 88 | 84 | 2.6 | 9.6 | 0.00 | 0.00 | 0.26 | 68 | 1014.6 |
| 20260830211646 | 87 | 62 | 4.3 | 7.8 | 0.00 | 0.00 | 0.26 | 68 | 1014.6 |
| 20260830211146 | 87 | 64 | 7.8 | 11.3 | 0.00 | 0.00 | 0.26 | 70 | 1014.6 |
| 20260830210646 | 87 | 91 | 3.5 | 10.4 | 0.00 | 0.00 | 0.26 | 71 | 1014.6 |
| 20260830210148 | 88 | 52 | 4.3 | 8.7 | 0.00 | 0.00 | 0.26 | 70 | 1014.6 |
| 20260830205646 | 87 | 70 | 8.7 | 12.2 | 0.00 | 0.00 | 0.26 | 70 | 1014.6 |
| 20260830205146 | 88 | 70 | 6.1 | 12.2 | 0.00 | 0.00 | 0.26 | 69 | 1014.6 |
| 20260830204646 | 88 | 32 | 4.3 | 10.4 | 0.00 | 0.00 | 0.26 | 70 | 1014.9 |
| 20260830204146 | 87 | 85 | 2.6 | 9.6 | 0.00 | 0.00 | 0.26 | 71 | 1014.6 |
| 20260830203646 | 88 | 40 | 7.0 | 14.8 | 0.00 | 0.00 | 0.26 | 70 | 1014.9 |
| 20260830203146 | 89 | 58 | 2.6 | 7.8 | 0.00 | 0.00 | 0.26 | 67 | 1014.6 |
| 20260830202647 | 89 | 72 | 7.8 | 10.4 | 0.00 | 0.00 | 0.26 | 66 | 1014.6 |
| 20260830202146 | 88 | 63 | 5.2 | 10.4 | 0.00 | 0.00 | 0.26 | 67 | 1014.6 |
| 20260830201646 | 89 | 84 | 4.3 | 6.1 | 0.00 | 0.00 | 0.26 | 66 | 1014.9 |
| 20260830201147 | 88 | 130 | 1.7 | 8.7 | 0.00 | 0.00 | 0.26 | 66 | 1014.9 |
| 20260830200647 | 88 | 85 | 3.5 | 9.6 | 0.00 | 0.00 | 0.26 | 66 | 1015.2 |
| 20260830200147 | 88 | 60 | 7.0 | 13.0 | 0.00 | 0.00 | 0.26 | 66 | 1015.2 |
| 20260830195646 | 88 | 35 | 2.6 | 7.0 | 0.00 | 0.00 | 0.26 | 66 | 1015.2 |
| 20260830195147 | 88 | 114 | 5.2 | 7.8 | 0.00 | 0.00 | 0.26 | 66 | 1015.2 |
| 20260830194646 | 88 | 70 | 5.2 | 7.0 | 0.00 | 0.00 | 0.26 | 66 | 1015.2 |
| 20260830194146 | 89 | 121 | 3.5 | 6.1 | 0.00 | 0.00 | 0.26 | 66 | 1015.2 |
| 20260830193647 | 90 | 10 | 1.7 | 7.0 | 0.00 | 0.00 | 0.26 | 65 | 1015.6 |
| 20260830193148 | 91 | 139 | 5.2 | 9.6 | 0.00 | 0.00 | 0.26 | 63 | 1015.6 |
| 20260830192646 | 91 | 134 | 6.1 | 7.0 | 0.00 | 0.00 | 0.26 | 63 | 1015.6 |
| 20260830192146 | 90 | 64 | 4.3 | 7.0 | 0.00 | 0.00 | 0.26 | 62 | 1015.6 |
| 20260830191646 | 91 | 101 | 3.5 | 9.6 | 0.00 | 0.00 | 0.26 | 63 | 1015.6 |
| 20260830191146 | 90 | 80 | 4.3 | 11.3 | 0.00 | 0.00 | 0.26 | 64 | 1015.6 |
| 20260830190646 | 90 | 52 | 9.6 | 12.2 | 0.00 | 0.00 | 0.26 | 63 | 1015.9 |
| 20260830190147 | 90 | 54 | 6.1 | 11.3 | 0.00 | 0.00 | 0.26 | 62 | 1015.6 |
| 20260830185647 | 90 | 26 | 2.6 | 9.6 | 0.00 | 0.00 | 0.26 | 63 | 1015.9 |
| 20260830185146 | 89 | 56 | 1.7 | 11.3 | 0.00 | 0.00 | 0.26 | 64 | 1015.9 |
| 20260830184646 | 89 | 46 | 7.8 | 13.0 | 0.00 | 0.00 | 0.26 | 64 | 1015.9 |
| 20260830184146 | 89 | 52 | 7.8 | 11.3 | 0.00 | 0.00 | 0.26 | 64 | 1015.9 |
| 20260830183646 | 89 | 50 | 4.3 | 13.0 | 0.00 | 0.00 | 0.26 | 64 | 1015.9 |
| 20260830183146 | 89 | 352 | 2.6 | 13.9 | 0.00 | 0.00 | 0.26 | 64 | 1015.9 |
| 20260830182646 | 89 | 61 | 7.8 | 14.8 | 0.00 | 0.00 | 0.26 | 66 | 1015.9 |
| 20260830182147 | 90 | 60 | 5.2 | 11.3 | 0.00 | 0.00 | 0.26 | 67 | 1015.9 |
| 20260830181646 | 89 | 30 | 6.1 | 8.7 | 0.00 | 0.00 | 0.26 | 69 | 1016.3 |
| 20260830181146 | 89 | 63 | 7.0 | 13.0 | 0.00 | 0.00 | 0.26 | 69 | 1016.3 |
| 20260830180647 | 88 | 50 | 5.2 | 12.2 | 0.00 | 0.00 | 0.26 | 72 | 1016.3 |
| 20260830180146 | 88 | 64 | 9.6 | 13.9 | 0.00 | 0.00 | 0.26 | 71 | 1016.3 |
| 20260830175646 | 88 | 71 | 11.3 | 11.3 | 0.00 | 0.00 | 0.26 | 71 | 1016.6 |
| 20260830175147 | 88 | 72 | 2.6 | 11.3 | 0.00 | 0.00 | 0.26 | 69 | 1016.6 |
| 20260830174646 | 88 | 358 | 1.7 | 13.0 | 0.00 | 0.00 | 0.26 | 67 | 1016.6 |
| 20260830174146 | 88 | 59 | 6.1 | 9.6 | 0.00 | 0.00 | 0.26 | 67 | 1016.6 |
| 20260830173647 | 88 | 29 | 3.5 | 13.9 | 0.00 | 0.00 | 0.26 | 67 | 1016.6 |
| 20260830173146 | 88 | 44 | 6.1 | 15.6 | 0.00 | 0.00 | 0.26 | 66 | 1016.9 |
| 20260830172647 | 88 | 47 | 9.6 | 12.2 | 0.00 | 0.00 | 0.26 | 65 | 1016.9 |
| 20260830172146 | 88 | 44 | 6.1 | 13.9 | 0.00 | 0.00 | 0.26 | 67 | 1016.9 |
| 20260830171646 | 86 | 73 | 7.0 | 11.3 | 0.00 | 0.00 | 0.26 | 73 | 1016.9 |
| 20260830171146 | 85 | 3 | 0.0 | 4.3 | 0.00 | 0.00 | 0.26 | 80 | 1016.9 |
| 20260830170649 | 85 | 332 | 2.6 | 4.3 | 0.00 | 0.00 | 0.26 | 84 | 1016.9 |
| 20260830170146 | 84 | 347 | 4.3 | 5.2 | 0.00 | 0.00 | 0.26 | 86 | 1016.9 |
| 20260830165646 | 84 | 350 | 3.5 | 6.1 | 0.00 | 0.00 | 0.26 | 85 | 1017.3 |
| 20260830165146 | 83 | 34 | 3.5 | 5.2 | 0.00 | 0.00 | 0.26 | 92 | 1016.9 |
| 20260830164646 | 81 | 327 | 4.3 | 4.3 | 0.00 | 0.00 | 0.26 | 92 | 1017.3 |
| 20260830164146 | 80 | 291 | 2.6 | 3.5 | 0.14 | 0.00 | 0.26 | 91 | 1016.9 |
| 20260830163646 | 79 | 320 | 2.6 | 2.6 | 0.78 | 0.00 | 0.26 | 93 | 1017.3 |
| 20260830163146 | 79 | 76 | 2.6 | 5.2 | 1.37 | 0.00 | 0.23 | 91 | 1017.3 |
| 20260830162647 | 83 | 76 | 5.2 | 11.3 | 0.97 | 0.00 | 0.16 | 86 | 1017.3 |
| 20260830162146 | 87 | 55 | 5.2 | 9.6 | 0.00 | 0.00 | 0.00 | 76 | 1017.3 |
| 20260830161646 | 87 | 56 | 1.7 | 7.8 | 0.00 | 0.00 | 0.00 | 76 | 1017.3 |
| 20260830161146 | 87 | 27 | 4.3 | 9.6 | 0.00 | 0.00 | 0.00 | 75 | 1016.9 |
| 20260830160647 | 87 | 21 | 3.5 | 7.8 | 0.00 | 0.00 | 0.00 | 77 | 1016.9 |
| 20260830160146 | 87 | 359 | 6.1 | 7.8 | 0.00 | 0.00 | 0.00 | 78 | 1016.9 |
| 20260830155646 | 86 | 52 | 8.7 | 9.6 | 0.00 | 0.00 | 0.00 | 78 | 1016.9 |
| 20260830155146 | 86 | 41 | 4.3 | 6.1 | 0.00 | 0.00 | 0.00 | 78 | 1016.9 |
| 20260830154647 | 86 | 34 | 4.3 | 8.7 | 0.00 | 0.00 | 0.00 | 79 | 1016.9 |
| 20260830154146 | 87 | 46 | 3.5 | 9.6 | 0.00 | 0.00 | 0.00 | 75 | 1016.9 |
| 20260830153646 | 87 | 36 | 3.5 | 7.8 | 0.00 | 0.00 | 0.00 | 76 | 1016.6 |
| 20260830153147 | 87 | 40 | 3.5 | 9.6 | 0.00 | 0.00 | 0.00 | 78 | 1016.9 |
| 20260830152646 | 86 | 352 | 2.6 | 7.8 | 0.00 | 0.00 | 0.00 | 78 | 1016.6 |
| 20260830152146 | 86 | 351 | 2.6 | 7.8 | 0.00 | 0.00 | 0.00 | 79 | 1016.9 |
| 20260830151647 | 86 | 34 | 2.6 | 5.2 | 0.00 | 0.00 | 0.00 | 80 | 1016.9 |
| 20260830151146 | 86 | 45 | 1.7 | 8.7 | 0.00 | 0.00 | 0.00 | 81 | 1016.9 |
| 20260830150646 | 85 | 360 | 3.5 | 8.7 | 0.00 | 0.00 | 0.00 | 81 | 1016.9 |
| 20260830150146 | 86 | 26 | 2.6 | 10.4 | 0.00 | 0.00 | 0.00 | 81 | 1016.6 |
| 20260830145647 | 86 | 25 | 4.3 | 7.8 | 0.00 | 0.00 | 0.00 | 81 | 1016.9 |
| 20260830145146 | 86 | 18 | 4.3 | 7.0 | 0.00 | 0.00 | 0.00 | 81 | 1016.9 |
| 20260830144647 | 85 | 56 | 5.2 | 7.8 | 0.00 | 0.00 | 0.00 | 80 | 1016.9 |
| 20260830144146 | 86 | 20 | 3.5 | 7.0 | 0.00 | 0.00 | 0.00 | 80 | 1016.6 |
| 20260830143646 | 86 | 35 | 5.2 | 7.0 | 0.00 | 0.00 | 0.00 | 79 | 1016.6 |
| 20260830143146 | 86 | 33 | 4.3 | 8.7 | 0.00 | 0.00 | 0.00 | 80 | 1016.6 |
| 20260830142646 | 85 | 36 | 5.2 | 9.6 | 0.00 | 0.00 | 0.00 | 82 | 1016.6 |
| 20260830142146 | 85 | 72 | 6.1 | 7.0 | 0.00 | 0.00 | 0.00 | 82 | 1016.6 |
| 20260830141646 | 85 | 38 | 7.0 | 7.8 | 0.00 | 0.00 | 0.00 | 83 | 1016.6 |
| 20260830141146 | 85 | 44 | 4.3 | 6.1 | 0.00 | 0.00 | 0.00 | 83 | 1016.6 |
| 20260830140647 | 85 | 28 | 6.1 | 7.8 | 0.00 | 0.00 | 0.00 | 84 | 1016.3 |
| 20260830140147 | 85 | 27 | 4.3 | 7.0 | 0.00 | 0.00 | 0.00 | 83 | 1016.6 |
| 20260830135646 | 85 | 17 | 2.6 | 5.2 | 0.00 | 0.00 | 0.00 | 82 | 1016.6 |
| 20260830135147 | 86 | 25 | 2.6 | 7.8 | 0.00 | 0.00 | 0.00 | 82 | 1016.6 |
| 20260830134647 | 85 | 14 | 2.6 | 6.1 | 0.00 | 0.00 | 0.00 | 81 | 1016.6 |
| 20260830134146 | 85 | 22 | 3.5 | 7.8 | 0.00 | 0.00 | 0.00 | 83 | 1016.6 |
| 20260830133646 | 85 | 37 | 4.3 | 8.7 | 0.00 | 0.00 | 0.00 | 82 | 1016.6 |
| 20260830133146 | 85 | 36 | 4.3 | 7.8 | 0.00 | 0.00 | 0.00 | 83 | 1016.6 |
| 20260830132646 | 84 | 61 | 8.7 | 9.6 | 0.00 | 0.00 | 0.00 | 84 | 1016.6 |
| 20260830132147 | 84 | 51 | 4.3 | 7.8 | 0.00 | 0.00 | 0.00 | 84 | 1016.6 |
| 20260830131646 | 84 | 7 | 3.5 | 7.8 | 0.00 | 0.00 | 0.00 | 84 | 1016.6 |
| 20260830131146 | 84 | 46 | 6.1 | 7.8 | 0.00 | 0.00 | 0.00 | 85 | 1016.3 |
| 20260830130646 | 84 | 27 | 4.3 | 7.0 | 0.00 | 0.00 | 0.00 | 86 | 1016.3 |
| 20260830130146 | 83 | 26 | 0.9 | 5.2 | 0.00 | 0.00 | 0.00 | 88 | 1016.3 |
| 20260830125646 | 83 | 344 | 0.0 | 5.2 | 0.00 | 0.00 | 0.00 | 88 | 1016.3 |
| 20260830125146 | 83 | 10 | 4.3 | 7.0 | 0.00 | 0.00 | 0.00 | 88 | 1016.3 |
| 20260830124647 | 83 | 25 | 4.3 | 7.0 | 0.00 | 0.00 | 0.00 | 88 | 1015.9 |
| 20260830124146 | 83 | 29 | 3.5 | 6.1 | 0.00 | 0.00 | 0.00 | 90 | 1015.9 |
| 20260830123646 | 82 | 49 | 1.7 | 5.2 | 0.00 | 0.00 | 0.00 | 90 | 1016.3 |
| 20260830123147 | 82 | 18 | 2.6 | 6.1 | 0.00 | 0.00 | 0.00 | 90 | 1016.3 |
| 20260830122647 | 82 | 22 | 7.8 | 8.7 | 0.00 | 0.00 | 0.00 | 90 | 1015.9 |
| 20260830122148 | 82 | 10 | 6.1 | 9.6 | 0.00 | 0.00 | 0.00 | 90 | 1015.9 |
| 20260830121646 | 82 | 37 | 6.1 | 7.0 | 0.00 | 0.00 | 0.00 | 91 | 1015.9 |
| 20260830121147 | 82 | 360 | 1.7 | 6.1 | 0.00 | 0.00 | 0.00 | 91 | 1015.9 |
| 20260830120646 | 82 | 343 | 4.3 | 8.7 | 0.00 | 0.00 | 0.00 | 90 | 1015.9 |
| 20260830120147 | 82 | 31 | 5.2 | 6.1 | 0.00 | 0.00 | 0.00 | 89 | 1016.3 |
| 20260830115646 | 82 | 24 | 4.3 | 6.1 | 0.00 | 0.00 | 0.00 | 89 | 1015.9 |
| 20260830115146 | 82 | 34 | 2.6 | 6.1 | 0.00 | 0.00 | 0.00 | 88 | 1015.9 |
| 20260830114646 | 82 | 67 | 1.7 | 5.2 | 0.00 | 0.00 | 0.00 | 87 | 1015.9 |
| 20260830114146 | 82 | 23 | 0.9 | 5.2 | 0.00 | 0.00 | 0.00 | 85 | 1015.9 |
| 20260830113646 | 82 | 58 | 2.6 | 5.2 | 0.00 | 0.00 | 0.00 | 86 | 1015.6 |
| 20260830113146 | 82 | 36 | 3.5 | 5.2 | 0.00 | 0.00 | 0.00 | 86 | 1015.6 |
| 20260830112646 | 82 | 14 | 1.7 | 4.3 | 0.00 | 0.00 | 0.00 | 85 | 1015.6 |
| 20260830112146 | 82 | 32 | 2.6 | 4.3 | 0.00 | 0.00 | 0.00 | 85 | 1015.6 |
| 20260830111647 | 82 | 29 | 0.0 | 4.3 | 0.00 | 0.00 | 0.00 | 85 | 1015.6 |
| 20260830111146 | 82 | 26 | 4.3 | 5.2 | 0.00 | 0.00 | 0.00 | 85 | 1015.6 |
| 20260830110646 | 82 | 356 | 0.0 | 3.5 | 0.00 | 0.00 | 0.00 | 85 | 1015.2 |
| 20260830110146 | 82 | 1 | 0.9 | 4.3 | 0.00 | 0.00 | 0.00 | 85 | 1015.2 |
| 20260830105646 | 82 | 10 | 3.5 | 3.5 | 0.00 | 0.00 | 0.00 | 85 | 1015.2 |
| 20260830105146 | 82 | 6 | 1.7 | 2.6 | 0.00 | 0.00 | 0.00 | 85 | 1014.9 |
| 20260830104646 | 82 | 28 | 1.7 | 2.6 | 0.00 | 0.00 | 0.00 | 85 | 1015.2 |
| 20260830104146 | 82 | 9 | 0.9 | 3.5 | 0.00 | 0.00 | 0.00 | 85 | 1014.9 |
| 20260830103647 | 82 | 18 | 0.9 | 2.6 | 0.00 | 0.00 | 0.00 | 84 | 1014.9 |
| 20260830103147 | 82 | 330 | 0.9 | 2.6 | 0.00 | 0.00 | 0.00 | 84 | 1014.9 |
| 20260830102646 | 82 | 355 | 0.9 | 2.6 | 0.00 | 0.00 | 0.00 | 83 | 1014.9 |
| 20260830102147 | 82 | 20 | 0.9 | 3.5 | 0.00 | 0.00 | 0.00 | 83 | 1014.9 |
| 20260830101647 | 82 | 8 | 1.7 | 3.5 | 0.00 | 0.00 | 0.00 | 83 | 1014.6 |
| 20260830101147 | 83 | 70 | 3.5 | 3.5 | 0.00 | 0.00 | 0.00 | 82 | 1014.6 |
| 20260830100646 | 83 | 21 | 0.0 | 3.5 | 0.00 | 0.00 | 0.00 | 82 | 1014.9 |
| 20260830100146 | 83 | 20 | 1.7 | 2.6 | 0.00 | 0.00 | 0.00 | 81 | 1014.9 |
| 20260830095646 | 83 | 345 | 1.7 | 2.6 | 0.00 | 0.00 | 0.00 | 81 | 1014.6 |
| 20260830095146 | 83 | 309 | 0.0 | 1.7 | 0.00 | 0.00 | 0.00 | 81 | 1014.9 |
| 20260830094646 | 83 | 335 | 0.0 | 2.6 | 0.00 | 0.00 | 0.00 | 81 | 1014.9 |
| 20260830094148 | 83 | 37 | 0.9 | 4.3 | 0.00 | 0.00 | 0.00 | 81 | 1014.9 |
| 20260830093647 | 83 | 37 | 1.7 | 3.5 | 0.00 | 0.00 | 0.00 | 81 | 1014.9 |
| 20260830093146 | 83 | 62 | 1.7 | 4.3 | 0.00 | 0.00 | 0.00 | 83 | 1014.9 |
| 20260830092646 | 83 | 96 | 1.7 | 2.6 | 0.00 | 0.00 | 0.00 | 83 | 1014.6 |
| 20260830092146 | 83 | 82 | 1.7 | 3.5 | 0.00 | 0.00 | 0.00 | 83 | 1014.9 |
| 20260830091646 | 83 | 68 | 2.6 | 6.1 | 0.00 | 0.00 | 0.00 | 83 | 1014.9 |
| 20260830091147 | 83 | 48 | 1.7 | 4.3 | 0.00 | 0.00 | 0.00 | 83 | 1014.9 |
| 20260830090646 | 83 | 57 | 2.6 | 4.3 | 0.00 | 0.00 | 0.00 | 83 | 1014.6 |
| 20260830090146 | 83 | 75 | 0.0 | 4.3 | 0.00 | 0.00 | 0.00 | 84 | 1014.9 |
| 20260830085648 | 83 | 58 | 0.9 | 4.3 | 0.00 | 0.00 | 0.00 | 84 | 1014.6 |
| 20260830085146 | 83 | 69 | 1.7 | 5.2 | 0.00 | 0.00 | 0.00 | 84 | 1014.6 |
| 20260830084648 | 83 | 87 | 1.7 | 5.2 | 0.00 | 0.00 | 0.00 | 84 | 1014.6 |
| 20260830084148 | 83 | 76 | 3.5 | 7.0 | 0.00 | 0.00 | 0.00 | 84 | 1014.9 |
| 20260830083646 | 83 | 62 | 2.6 | 4.3 | 0.00 | 0.00 | 0.00 | 84 | 1014.9 |
| 20260830083146 | 83 | 47 | 1.7 | 4.3 | 0.00 | 0.00 | 0.00 | 84 | 1014.9 |
| 20260830082646 | 83 | 68 | 2.6 | 4.3 | 0.00 | 0.00 | 0.00 | 85 | 1014.9 |
| 20260830082146 | 83 | 32 | 2.6 | 3.5 | 0.00 | 0.00 | 0.00 | 85 | 1014.9 |
| 20260830081646 | 83 | 67 | 1.7 | 4.3 | 0.00 | 0.00 | 0.00 | 85 | 1014.6 |
| 20260830081147 | 83 | 39 | 1.7 | 3.5 | 0.00 | 0.00 | 0.00 | 85 | 1014.9 |
| 20260830080646 | 83 | 58 | 2.6 | 2.6 | 0.00 | 0.00 | 0.00 | 84 | 1014.6 |
| 20260830080146 | 83 | 95 | 1.7 | 2.6 | 0.00 | 0.00 | 0.00 | 84 | 1014.6 |
| 20260830075647 | 83 | 97 | 1.7 | 4.3 | 0.00 | 0.00 | 0.00 | 84 | 1014.9 |
| 20260830075146 | 83 | 57 | 2.6 | 5.2 | 0.00 | 0.00 | 0.00 | 84 | 1014.9 |
| 20260830074646 | 83 | 77 | 2.6 | 4.3 | 0.00 | 0.00 | 0.00 | 83 | 1014.9 |
| 20260830074146 | 83 | 79 | 3.5 | 4.3 | 0.00 | 0.00 | 0.00 | 83 | 1014.9 |
| 20260830073646 | 83 | 56 | 1.7 | 4.3 | 0.00 | 0.00 | 0.00 | 83 | 1015.2 |
| 20260830073146 | 83 | 68 | 0.9 | 3.5 | 0.00 | 0.00 | 0.00 | 82 | 1015.2 |
| 20260830072646 | 83 | 67 | 2.6 | 5.2 | 0.00 | 0.00 | 0.00 | 83 | 1014.9 |
| 20260830072146 | 83 | 77 | 3.5 | 3.5 | 0.00 | 0.00 | 0.00 | 82 | 1014.9 |
| 20260830071647 | 83 | 57 | 2.6 | 3.5 | 0.00 | 0.00 | 0.00 | 82 | 1014.9 |
| 20260830071146 | 84 | 59 | 1.7 | 2.6 | 0.00 | 0.00 | 0.00 | 82 | 1015.2 |
| 20260830070646 | 83 | 67 | 1.7 | 4.3 | 0.00 | 0.00 | 0.00 | 82 | 1015.2 |
| 20260830070146 | 83 | 60 | 1.7 | 4.3 | 0.00 | 0.00 | 0.00 | 82 | 1015.2 |
| 20260830065647 | 83 | 84 | 2.6 | 4.3 | 0.00 | 0.00 | 0.00 | 82 | 1015.2 |
| 20260830065150 | 83 | 44 | 1.7 | 4.3 | 0.00 | 0.00 | 0.00 | 82 | 1015.6 |
| 20260830064647 | 83 | 66 | 2.6 | 2.6 | 0.00 | 0.00 | 0.00 | 83 | 1015.6 |
| 20260830064146 | 83 | 76 | 1.7 | 5.2 | 0.00 | 0.00 | 0.00 | 83 | 1015.6 |
| 20260830063647 | 83 | 35 | 2.6 | 4.3 | 0.00 | 0.00 | 0.00 | 83 | 1015.6 |
| 20260830063146 | 83 | 52 | 0.0 | 2.6 | 0.00 | 0.00 | 0.00 | 83 | 1015.6 |
| 20260830062646 | 83 | 86 | 0.9 | 2.6 | 0.00 | 0.00 | 0.00 | 83 | 1015.6 |
| 20260830062146 | 83 | 70 | 0.9 | 2.6 | 0.00 | 0.00 | 0.00 | 82 | 1015.9 |
| 20260830061646 | 83 | 49 | 2.6 | 2.6 | 0.00 | 0.00 | 0.00 | 82 | 1015.6 |
| 20260830061146 | 83 | 57 | 1.7 | 4.3 | 0.00 | 0.00 | 0.00 | 82 | 1015.6 |
| 20260830060646 | 83 | 62 | 2.6 | 3.5 | 0.00 | 0.00 | 0.00 | 82 | 1015.9 |
| 20260830060146 | 83 | 61 | 2.6 | 4.3 | 0.00 | 0.00 | 0.00 | 82 | 1015.9 |
| 20260830055646 | 83 | 94 | 3.5 | 6.1 | 0.00 | 0.00 | 0.00 | 82 | 1015.9 |
| 20260830055146 | 83 | 55 | 1.7 | 3.5 | 0.00 | 0.00 | 0.00 | 82 | 1015.9 |
| 20260830054646 | 83 | 67 | 5.2 | 6.1 | 0.00 | 0.00 | 0.00 | 82 | 1015.9 |
| 20260830054146 | 83 | 124 | 1.7 | 6.1 | 0.00 | 0.00 | 0.00 | 82 | 1016.3 |
| 20260830053647 | 83 | 143 | 2.6 | 4.3 | 0.00 | 0.00 | 0.00 | 82 | 1016.6 |
| 20260830053146 | 83 | 43 | 0.9 | 3.5 | 0.00 | 0.00 | 0.00 | 82 | 1016.3 |
| 20260830052646 | 83 | 1 | 1.7 | 3.5 | 0.00 | 0.00 | 0.00 | 82 | 1016.3 |
| 20260830052147 | 83 | 129 | 1.7 | 3.5 | 0.00 | 0.00 | 0.00 | 82 | 1016.6 |
| 20260830051647 | 83 | 175 | 1.7 | 3.5 | 0.00 | 0.00 | 0.00 | 82 | 1016.6 |
| 20260830051147 | 83 | 127 | 0.0 | 3.5 | 0.00 | 0.00 | 0.00 | 82 | 1016.6 |
| 20260830050646 | 83 | 50 | 0.9 | 4.3 | 0.00 | 0.00 | 0.00 | 82 | 1016.3 |